sat.trackr.live / text

‹ back to catalog

STARLINK-4490

NORAD 53409 · 2022-097X

PAYLOAD ACTIVE UNKNOWN

§ Identity

Operator
Country
US
Launch date
2022-08-10
Launch site
AFETR
Launch vehicle
Mass (kg)
RCS (m²)

Purposes: comms

External: N2YO · Heavens-Above · Gunter

§ Orbital elements

Epoch: 2026-05-25T05:08:24.332928Z

Period
95.44 min
Inclination
53.2140°
Eccentricity
0.0001479
Mean motion
15.08835683 rev/d
Perigee alt
538.7 km
Apogee alt
540.8 km
Semi-major
6,917.9 km
B*
-1.5645e-5
RAAN
120.7850°
Arg perigee
84.8189°
Mean anomaly
275.2972°
Rev number
21,034

§ Raw data

STARLINK-44901 53409U 22097X   26145.21417052 -.00000537  00000+0 -15645-4 0  99922 53409  53.2140 120.7850 0001479  84.8189 275.2972 15.08835683210341

JSON: /api/v1/satellites/53409 · /tle

For live sub-satellite position, see the globe view (requires WebGL).

§ Visibility from observer

Set your observer location to see the next 7 days of passes ≥ 10°. The values pass through the URL so the page stays shareable.

No JS? Fill the form by hand. The geolocation button needs JavaScript.